Location: Unspecified
(0.0000°N, 0.0000°E)
Time: 06:58:34
(UTC+00:00)

Altair - Pass Details

Date: 20 November 2019
Orbit: 1502 x 1682 km, 47.2° (Epoch: 12 December)

Event Time Altitude Azimuth Distance (km) Brightness Sun altitude
Rises 01:19:51 0° 251° (WSW) 4,740 - -59.7°
Reaches altitude 10° 01:23:54 10° 265° (W) 3,724 - -58.9°
Maximum altitude 01:30:36 22° 312° (NW) 2,860 - -57.6°
Drops below altitude 10° 01:37:13 10° 359° (N) 3,650 - -56.3°
Sets 01:41:12 0° 14° (NNE) 4,621 - -55.5°
